042 
ASUS46 KSEW 220710
RWRWA 

WASHINGTON REGIONAL WEATHER ROUNDUP
NATIONAL WEATHER SERVICE SEATTLE WA
1100 PM PST SUN DEC 21 2014

NOTE:"FAIR" INDICATES FEW OR NO CLOUDS BELOW 12,000 FEET WITH NO 
SIGNIFICANT WEATHER AND/OR OBSTRUCTIONS TO VISIBILITY.

WAZ505-507>509-220800-
SEATTLE, TACOMA, EVERETT, AND VICINITY
  
CITY           SKY/WX    TMP DP  RH WIND       PRES   REMARKS
EVERETT        CLOUDY    48  43  82 CALM      30.08R                  
BOEING FIELD   CLOUDY    54  46  74 SW7G16    30.08R                  
RENTON         CLOUDY    52  47  83 SE8       30.08S                  
SEATAC AIRPORT CLOUDY    50  46  86 SW10      30.09R                  
JBLM-MCCHORD   LGT RAIN  48  48 100 S10       30.12R                  
PUYALLUP       NOT AVBL                                               
JBLM-FT LEWIS  DRIZZLE   49  49  99 S1        30.12S                  
TACOMA NARROWS CLOUDY    50  46  86 S14G22    30.10F                  
$$
 
WAZ001-503-506-510-514-515-220800-
NORTH INTERIOR
  
CITY           SKY/WX    TMP DP  RH WIND       PRES   REMARKS
BELLINGHAM     MOCLDY    50  44  80 S10       30.06R                  
FRIDAY HARBOR  MOCLDY    49  43  80 VRB5      30.09R                  
EASTSOUND      PTCLDY    50  45  81 S8        30.05R                  
PORT ANGELES   MOCLDY    48  39  71 SW10      30.09R                  
NAS WHIDBEY    MOCLDY    48  44  86 SE3       30.10R                  
BURLINGTON     PTCLDY    46  45  93 CALM      30.10R                  
$$
 
WAZ020-022-039-040-504-511-512-220800-
SOUTHWEST INTERIOR
  
CITY           SKY/WX    TMP DP  RH WIND       PRES   REMARKS
SHELTON        LGT RAIN  49  45  86 W14       30.09S                  
OLYMPIA        LGT RAIN  49  45  86 SW9       30.12F                  
CHEHALIS       CLOUDY    50  50 100 S5        30.14S                  
KELSO          CLOUDY    50  46  87 SE5       30.20R                  
VANCOUVER      CLOUDY    51  48  89 CALM      30.17R                  
SCAPPOOSE, OR  LGT RAIN  50  49  96 CALM      30.16R FOG              
PORTLAND, OR   LGT RAIN  51  50  96 CALM      30.18R                  
$$
 
WAZ021-516-517-220800-
WASHINGTON COAST
  
CITY           SKY/WX    TMP DP  RH WIND       PRES   REMARKS
FORKS          MOCLDY    50  47  89 W5        30.13R FOG              
HOQUIAM        CLOUDY    50  47  89 W6        30.14R                  
ASTORIA, OR    LGT RAIN  53  51  93 W8        30.16R FOG              
$$
 
WAZ019-023-024-040-518-519-220800-
CASCADE MOUNTAINS AND COLUMBIA GORGE
  
CITY           SKY/WX    TMP DP  RH WIND       PRES   REMARKS
TROUTDALE, OR  LGT RAIN  51  50  96 SW6       30.16S FOG              
THE DALLES, OR CLOUDY    51  46  83 CALM      30.11R                  
$$

WAZ026-027-041>044-520-521-220800-
EAST SLOPES
  
CITY           SKY/WX    TMP DP  RH WIND       PRES   REMARKS
OMAK           MOCLDY    33  29  85 CALM      29.97R                  
WENATCHEE      MOCLDY    42  35  76 W5        30.03R                  
ELLENSBURG     CLOUDY    44  35  70 NW15G23   30.04R                  
YAKIMA         NOT AVBL                                               
$$

WAZ028-034-035-220800-
COLUMBIA BASIN
  
CITY           SKY/WX    TMP DP  RH WIND       PRES   REMARKS
EPHRATA        MOCLDY    48  32  53 W18       30.01R                  
MOSES LAKE     MOCLDY    41  34  76 W8        30.03R                  
PASCO          CLOUDY    50  43  77 SW9       30.07R                  
HERMISTON, OR  CLOUDY    51  40  65 SW10      30.07F                  
$$

WAZ036>038-220800-
NORTHEAST WASHINGTON
  
CITY           SKY/WX    TMP DP  RH WIND       PRES   REMARKS
SPOKANE GEIGER CLOUDY    39  33  79 SW13      29.95R                  
SPOKANE FELTS  CLOUDY    42  34  73 W6        29.97R                  
FAIRCHILD AFB  CLOUDY    39  32  75 W16       29.95R                  
COEURDALENE,ID CLOUDY    37  32  81 SW6       29.93R                  
DEER PARK      CLOUDY    37  34  89 S8        29.94R                  
$$

WAZ029>033-220800-
SOUTHEAST WASHINGTON
  
CITY           SKY/WX    TMP DP  RH WIND       PRES   REMARKS
PULLMAN        CLOUDY    43  37  79 W16G25    30.00R                  
LEWISTON, ID   LGT RAIN  50  36  58 W16       29.99S                  
WALLA WALLA    CLOUDY    48  41  76 S8        30.08R                  
PENDLETON, OR  CLOUDY    47  39  74 W18       30.07R                  
$$